Location: ???????
(54.9996°N, 37.9529°E)
Time: 04:26:13
(UTC+00:00)

Cosmos 1536 - Pass Details

Date: 14 April 2024
Orbit: 514 x 542 km, 82.6° (Epoch: 20 May)

Event Time Altitude Azimuth Distance (km) Brightness Sun altitude
Rises 00:27:11 0° 344° (NNW) 2,684 6.7 -15.5°
Reaches altitude 10° 00:29:25 10° 338° (NNW) 1,784 5.7 -15.2°
Maximum altitude 00:33:08 44° 266° (W) 735 3.1 -14.9°
Enters shadow 00:34:55 26° 209° (SSW) 1,064 3.7 -14.7°
